Weather History for KBJI - October, 2012

Change the Weather History Date:

Sunday, October 21, 2012

  Actual Average Record
Temperature  
Mean Temperature 47 °F -  
Max Temperature 53 °F 50 °F - (-1)
Min Temperature 41 °F 31 °F - (-1)
Degree Days  
Heating Degree Days 18    
Moisture  
Dew Point 44 °F    
Average Humidity 88    
Maximum Humidity 98    
Minimum Humidity 74    
Precipitation  
Precipitation 0.00 in - - ()
Sea Level Pressure  
Sea Level Pressure 29.82 in    
Wind  
Wind Speed 6 mph (ESE)    
Max Wind Speed 12 mph    
Max Gust Speed 16 mph    
Visibility 8 miles    
Events Rain    
Averages and records for this station are not official NWS values.
T = Trace of Precipitation, MM = Missing Value Source: NWS Daily Summary

Daily Weather History Graph

Daily Weather History Graph

Search for Another Location

Airport or City:

Trip Planner

Search our weather history database for the weather conditions in past years. The results will help you decide how hot, cold, wet, or windy it might be!

Date:

Astronomy

Oct. 21, 2012 Rise Set
Actual Time 7:47 AM CDT 6:19 PM CDT
Civil Twilight 7:16 AM CDT 6:51 PM CDT
Nautical Twilight 6:40 AM CDT 7:26 PM CDT
Astronomical Twilight 6:05 AM CDT 8:02 PM CDT
Moon 2:17 PM CDT (10/21) No Moon Set
Length of Visible Light 11h 34m
Length of Day
10h 31m
Waxing Crescent, 45% of the Moon is Illuminated
Oct 21
Waxing Crescent
Oct 21
First Quarter
Oct 29
Full
Nov 6
Last Quarter
Nov 13
New

Hourly Weather History & Observations

Time (CDT) Temp. Windchill Dew Point Humidity Pressure Visibility Wind Dir Wind Speed Gust Speed Precip Events Conditions
12:15 AM 44.6 °F 40.7 °F 41.4 °F 88% 29.73 in 7.0 mi SSE 6.9 mph - N/A   Mostly Cloudy
12:35 AM 44.8 °F 41.6 °F 41.5 °F 88% 29.74 in 10.0 mi SSE 5.8 mph - N/A   Overcast
12:55 AM 45.0 °F 41.2 °F 41.7 °F 88% 29.75 in 7.0 mi South 6.9 mph - N/A   Overcast
1:15 AM 45.0 °F 41.2 °F 41.9 °F 89% 29.75 in 7.0 mi South 6.9 mph - N/A   Overcast
1:35 AM 44.4 °F 40.5 °F 41.7 °F 90% 29.75 in 7.0 mi SSE 6.9 mph - N/A   Overcast
1:55 AM 44.1 °F 39.5 °F 41.7 °F 91% 29.74 in 7.0 mi SSE 8.1 mph - N/A   Mostly Cloudy
2:15 AM 44.1 °F 39.5 °F 41.9 °F 92% 29.74 in 7.0 mi SSE 8.1 mph - N/A   Mostly Cloudy
2:35 AM 44.6 °F 40.2 °F 42.1 °F 91% 29.73 in 7.0 mi SE 8.1 mph - N/A   Mostly Cloudy
2:55 AM 44.6 °F 40.7 °F 42.3 °F 91% 29.74 in 10.0 mi SSE 6.9 mph - N/A Rain Light Rain
3:15 AM 44.6 °F 40.2 °F 42.6 °F 93% 29.73 in 7.0 mi SSE 8.1 mph - N/A   Mostly Cloudy
3:35 AM 44.8 °F 40.4 °F 42.8 °F 93% 29.73 in 10.0 mi SSE 8.1 mph - N/A Rain Light Rain
3:55 AM 44.8 °F 41.6 °F 42.8 °F 93% 29.74 in 7.0 mi SSE 5.8 mph - N/A   Overcast
4:15 AM 44.6 °F 42.2 °F 42.8 °F 93% 29.74 in 7.0 mi South 4.6 mph - N/A   Overcast
4:35 AM 44.8 °F 43.3 °F 42.8 °F 93% 29.75 in 7.0 mi SSE 3.5 mph - N/A   Overcast
4:55 AM 44.2 °F 42.7 °F 42.6 °F 94% 29.75 in 7.0 mi South 3.5 mph - N/A   Mostly Cloudy
5:15 AM 44.6 °F 41.4 °F 42.8 °F 93% 29.75 in 7.0 mi South 5.8 mph - N/A   Mostly Cloudy
5:35 AM 45.1 °F 43.7 °F 43.0 °F 92% 29.75 in 7.0 mi SSE 3.5 mph - N/A Rain Light Rain
5:55 AM 45.0 °F 41.8 °F 43.2 °F 93% 29.76 in 10.0 mi South 5.8 mph - N/A Rain Light Rain
6:15 AM 44.8 °F 41.6 °F 43.3 °F 95% 29.76 in 7.0 mi SSE 5.8 mph - N/A Rain Light Rain
6:35 AM 44.8 °F - 43.2 °F 94% 29.77 in 7.0 mi Calm Calm - N/A   Overcast
6:55 AM 44.2 °F - 43.0 °F 95% 29.78 in 7.0 mi Calm Calm - N/A   Overcast
7:15 AM 43.7 °F 40.3 °F 42.8 °F 97% 29.76 in 7.0 mi East 5.8 mph - N/A   Light Drizzle
7:35 AM 43.2 °F 39.7 °F 42.3 °F 97% 29.77 in 5.0 mi SE 5.8 mph - N/A   Scattered Clouds
7:55 AM 42.3 °F 40.5 °F 41.4 °F 97% 29.77 in 5.0 mi ESE 3.5 mph - N/A   Scattered Clouds
8:15 AM 41.2 °F 37.3 °F 40.6 °F 98% 29.78 in 3.0 mi SE 5.8 mph - N/A   Clear
8:35 AM 41.9 °F 38.2 °F 41.4 °F 98% 29.77 in 4.0 mi ESE 5.8 mph - N/A   Clear
8:55 AM 44.1 °F 41.5 °F 43.0 °F 96% 29.78 in 5.0 mi SE 4.6 mph - N/A   Mostly Cloudy
9:15 AM 45.0 °F 40.1 °F 43.3 °F 94% 29.77 in 5.0 mi SE 9.2 mph - N/A   Mostly Cloudy
9:55 AM 45.0 °F 41.2 °F 43.3 °F 94% 29.77 in 5.0 mi SE 6.9 mph - N/A   Overcast
10:15 AM 45.3 °F 42.3 °F 43.3 °F 93% 29.78 in 5.0 mi SE 5.8 mph - N/A   Overcast
10:55 AM 47.7 °F - 44.1 °F 87% 29.78 in 7.0 mi SE 6.9 mph - N/A   Overcast
11:15 AM 48.6 °F - 44.4 °F 86% 29.79 in 7.0 mi SSE 5.8 mph - N/A   Mostly Cloudy
12:15 PM 50.7 °F - 44.6 °F 80% 29.80 in 7.0 mi SE 4.6 mph - N/A   Clear
12:35 PM 51.4 °F - 44.8 °F 78% 29.79 in 7.0 mi East 5.8 mph - N/A   Clear
12:55 PM 52.0 °F - 44.8 °F 76% 29.80 in 7.0 mi Calm Calm - N/A   Clear
1:15 PM 51.8 °F - 44.8 °F 77% 29.81 in 7.0 mi NNW 3.5 mph - N/A   Clear
1:35 PM 52.2 °F - 45.0 °F 76% 29.80 in 7.0 mi Calm Calm - N/A   Clear
1:55 PM 52.5 °F - 44.8 °F 75% 29.80 in 10.0 mi North 3.5 mph - N/A   Clear
2:15 PM 53.2 °F - 45.3 °F 74% 29.80 in 10.0 mi North 4.6 mph - N/A   Clear
2:35 PM 53.1 °F - 45.5 °F 75% 29.81 in 7.0 mi NNW 10.4 mph - N/A   Scattered Clouds
2:55 PM 52.9 °F - 45.5 °F 76% 29.83 in 7.0 mi North 6.9 mph - N/A   Scattered Clouds
3:35 PM 53.2 °F - 46.2 °F 77% 29.84 in 7.0 mi North 6.9 mph - N/A   Overcast
3:55 PM 53.2 °F - 46.4 °F 78% 29.85 in 7.0 mi NNW 5.8 mph - N/A   Overcast
4:15 PM 53.2 °F - 46.6 °F 78% 29.85 in 10.0 mi NNE 5.8 mph - N/A   Mostly Cloudy
4:35 PM 52.9 °F - 46.6 °F 79% 29.86 in 7.0 mi North 4.6 mph - N/A   Mostly Cloudy
5:35 PM 52.5 °F - 46.8 °F 81% 29.89 in 10.0 mi Calm Calm - N/A   Overcast
5:55 PM 52.2 °F - 46.9 °F 82% 29.89 in 7.0 mi North 5.8 mph - N/A   Overcast
6:15 PM 51.6 °F - 46.4 °F 82% 29.91 in 10.0 mi NNW 11.5 mph - N/A   Overcast
6:35 PM 50.7 °F - 45.7 °F 83% 29.92 in 7.0 mi NNW 9.2 mph - N/A   Overcast
6:55 PM 49.8 °F - 45.5 °F 85% 29.94 in 10.0 mi North 9.2 mph 16.1 mph N/A   Overcast
7:15 PM 49.3 °F - 45.1 °F 86% 29.93 in 10.0 mi North 6.9 mph - N/A   Overcast
7:35 PM 48.9 °F - 45.1 °F 87% 29.93 in 10.0 mi NNE 6.9 mph - N/A   Mostly Cloudy
7:55 PM 48.4 °F - 45.0 °F 88% 29.93 in 10.0 mi NNE 4.6 mph - N/A   Clear
8:15 PM 47.8 °F - 44.8 °F 89% 29.94 in 10.0 mi North 3.5 mph - N/A   Clear
8:35 PM 47.5 °F - 44.6 °F 90% 29.94 in 7.0 mi Calm Calm - N/A   Clear
8:55 PM 47.3 °F - 44.6 °F 90% 29.96 in 7.0 mi NW 5.8 mph - N/A   Mostly Cloudy
9:35 PM 47.3 °F - 44.2 °F 89% 29.98 in 10.0 mi NW 8.1 mph - N/A   Overcast
9:55 PM 46.9 °F - 43.3 °F 87% 29.98 in 10.0 mi NNW 8.1 mph - N/A   Overcast
10:15 PM 46.2 °F 42.7 °F 42.8 °F 88% 29.98 in 10.0 mi NNW 6.9 mph - N/A   Overcast
10:35 PM 45.5 °F 41.8 °F 42.4 °F 89% 29.98 in 7.0 mi NNW 6.9 mph - N/A   Scattered Clouds
11:15 PM 43.9 °F 39.3 °F 42.1 °F 93% 30.00 in 7.0 mi NNW 8.1 mph - N/A   Mostly Cloudy
11:35 PM 44.1 °F 39.0 °F 42.3 °F 93% 30.00 in 10.0 mi NNW 9.2 mph - N/A   Overcast
11:55 PM 44.1 °F 39.5 °F 42.3 °F 93% 30.00 in 7.0 mi North 8.1 mph - N/A   Overcast